Погода в Демском

Россия / Республика Башкортостан     53°32′12″N   54°27′25″E
темп.,
°C
ветер,
м/с
пор.,
м/с
влажн.,
%
обл.,
%
осадки,
мм/ч
давл.,
гПа
погр.,
м
22 апреля, чт
чт2223:00+8ююв71544100 0.0 1028652
02:00+6ю71361100 0.2 1030869
05:00+5ю61367100 0.3 10301019
08:00+5ююв51275100 0.5 1030680
11:00+8ю8115589 0.5 1030970
14:00+7ю71156100 0.0 1031876
17:00+4ю61286100 0.8 1032720
20:00+3ю61396100 1.3 1031539
23 апреля, пт
пт2323:00+3ю41197100 2.7 1031515
02:00+3ю4997100 1.0 1030607
05:00+4ююв2697100 2.4 1029368
08:00+5в2489100 0.1 1029169
11:00+9ююв4565100 0.1 1028707
14:00+11ююв5653100 0.0 1026774
17:00+14ююв5748100 0.0 10251449
20:00+11ююв4966100 0.0 1025302
24 апреля, сб
сб2423:00+8юв5990100 0.2 1024429
02:00+7вюв2791100 2.6 10221073
05:00+7всв5990100 3.8 1019416
08:00+8юв71176100 0.1 10171022
11:00+7вюв71186100 0.3 10161026
14:00+6юв4590100 0.4 1014977
17:00+6ю3489100 2.1 1014776
20:00+6юз2388100 0.6 1013292
25 апреля, вс
вс2523:00+6ююз2491100 0.6 1014149
02:00+6ююз3796100 0.1 1014314
05:00+4ю359481 0.1 101386
08:00+7ю61286100 0.2 1012502
11:00+7юз7128231 2.1 1013976
14:00+11зюз9115545 0.1 10141854
17:00+11зюз6105592 0.1 10161502
20:00+8зюз6878100 0.7 1017846
26 апреля, пн
пн2623:00+5ююз389111 1.2 1018176
02:00+5ююз3888100 0.0 1018171
05:00+4ююз3688100 0.0 1018157
08:00+6ююз3879100 0.0 1019356
11:00+9зюз3565100 0.0 1018774
14:00+10з2355100 0.0 10171210
17:00+9зсз1159100 0.1 10161060
20:00+7ссз1173100 0.2 101573